Header for Extended Forecast Station List Page

Search by: ID | Name | Date | Parm | Value | Avg | % Avg
Sort by: ID | Name | Date | Parm | Value | Avg | % Avg

Enter search or view all records.

Click on id for station plot
#IDNameDateParmValueAvg% Avg
0HWRI1BIG LOST-AT HOWELL RANCH NEAR CHILLY02-02-2016DISCHARGE (KAF)465977
1MACI1BIG LOST-MACKAY RESERVOIR NEAR MACKAY02-02-2016INFLOW (KAF)445581
2HALI1BIG WOOD-AT HAILEY02-02-2016DISCHARGE (KAF)10411590
3MAGI1BIG WOOD-MAGIC DAM02-02-2016INFLOW (KAF)179170105
4BITM8BITTERROOT-NEAR MISSOULA02-02-2016DISCHARGE (KAF)47764174
5BONM8BLACKFOOT-NEAR BONNER02-02-2016DISCHARGE (KAF)36045978
6BIGI1BOISE-AT GLENWOOD BRIDGE02-02-2016DISCHARGE (KAF)416283147
7LUCI1BOISE-LUCKY PEAK DAM02-02-2016INFLOW (KAF)906MM
8PARI1BOISE-NEAR PARMA02-02-2016DISCHARGE (KAF)468382123
9HOTI1BRUNEAU-NEAR HOT SPRINGS02-02-2016DISCHARGE (KAF)141136103
10BULO3BULLY CREEK-BULLY CREEK DAM02-02-2016INFLOW (KAF)299326
11BUDW1BUMPING-BUMPING LAKE DAM02-02-2016INFLOW (KAF)8272114
12CHDW1CHELAN-LAKE CHELAN DAM02-02-2016INFLOW (KAF)503495102
13ABOM8CLARK FORK-ABOVE MISSOULA02-02-2016DISCHARGE (KAF)59786169
14DLGM8CLARK FORK-AT DEER LODGE02-02-2016DISCHARGE (KAF)477265
15SRGM8CLARK FORK-AT ST REGIS02-02-2016DISCHARGE (KAF)1522211472
16BELM8CLARK FORK-BELOW MISSOULA02-02-2016DISCHARGE (KAF)1073151971
17CABI1CLARK FORK-CABINET GORGE DAM02-02-2016INFLOW (KAF)3772627460
18NOXM8CLARK FORK-NOXON RAPIDS DAM02-02-2016INFLOW (KAF)3389600056
19DRMM8CLARK FORK-NR DRUMMOND02-02-2016DISCHARGE (KAF)128MM
20CLUW1CLE ELUM-CLE ELUM LAKE02-02-2016INFLOW (KAF)267249107
21ORFI1CLEARWATER-AT OROFINO02-02-2016DISCHARGE (KAF)3026321494
22SPDI1CLEARWATER-AT SPALDING02-02-2016DISCHARGE (KAF)4754525690
23COEI1COEUR D ALENE-COEUR D ALENE LAKE02-02-2016INFLOW (KAF)2422263092
24CIBW1COLUMBIA-AT INTL BOUNDARY02-02-2016DISCHARGE (KAF)16253MM
25BONO3COLUMBIA-BONNEVILLE DAM02-02-2016INFLOW (KAF)42037MM
26CHJW1COLUMBIA-CHIEF JOSEPH DAM02-02-2016INFLOW (KAF)207802593280
27GCDW1COLUMBIA-GRAND COULEE DAM02-02-2016INFLOW (KAF)201302443982
28JDAO3COLUMBIA-JOHN DAY DAM02-02-2016INFLOW (KAF)403844779384
29MCDW1COLUMBIA-MCNARY DAM02-02-2016INFLOW (KAF)380694528684
30PRWW1COLUMBIA-PRIEST RAPIDS DAM02-02-2016INFLOW (KAF)234572718686
31RRHW1COLUMBIA-ROCKY REACH DAM02-02-2016INFLOW (KAF)225512752182
32TDAO3COLUMBIA-THE DALLES DAM02-02-2016INFLOW (KAF)408184834584
33WANW1COLUMBIA-WANAPUM DAM02-02-2016INFLOW (KAF)234632679088
34WELW1COLUMBIA-WELLS DAM02-02-2016INFLOW (KAF)219972714681
35DEDI1DEADWOOD-NEAR LOWMAN02-02-2016INFLOW (KAF)7974107
36MODO3DESCHUTES-AT MOODY NR BIGGS02-02-2016DISCHARGE (KAF)1437158091
37ARDW1ENTIAT-NEAR ARDENVOIR02-02-2016DISCHARGE (KAF)10390114
38CHEI1FALL RIVER-NEAR CHESTER02-02-2016DISCHARGE (KAF)224221101
39CFMM8FLATHEAD-AT COLUMBIA FALLS02-02-2016DISCHARGE (KAF)2130244687
40KERM8FLATHEAD-KERR DAM02-02-2016INFLOW (KAF)2397312177
41TRYO3GRANDE RONDE-TROY02-02-2016DISCHARGE (KAF)1063108698
42REXI1HENRYS FORK-AT REXBURG02-02-2016DISCHARGE (KAF)38961064
43ANTI1HENRYS FORK-AT ST. ANTHONY02-02-2016DISCHARGE (KAF)34852866
44IPDI1HENRYS FORK-ISLAND PARK DAM02-02-2016INFLOW (KAF)12915882
45HODO3HOOD-NEAR TUCKER BRIDGE02-02-2016DISCHARGE (KAF)306286107
46SERO3JOHN DAY-AT SERVICE CK02-02-2016DISCHARGE (KAF)880861102
47KADW1KACHESS-KACHESS DAM02-02-2016INFLOW (KAF)10087116
48LAUW1KETTLE-AT LAURIER02-02-2016DISCHARGE (KAF)11201072104
49PITW1KLICKITAT-NEAR PITT02-02-2016DISCHARGE (KAF)535517104
50BFEI1KOOTENAI-AT BONNERS FERRY02-02-2016STAGE (FT)MMM
51LEOI1KOOTENAI-AT LEONIA02-02-2016DISCHARGE (KAF)30362777109
52LYDM8KOOTENAI-LIBBY DAM02-02-2016INFLOW (KAF)2067238887
53LWRI1LITTLE WOOD-LITTLE WOOD DAM02-02-2016INFLOW (KAF)415574
54BERO3MALHEUR-AGENCY VALLEY DAM02-02-2016INFLOW (KAF)5451106
55VALO3MALHEUR-NEAR VALE02-02-2016DISCHARGE (KAF)376457
56WRMO3MALHEUR-WARM SPRINGS DAM02-02-2016INFLOW (KAF)12676166
57MYKO3MCKAY CREEK-NEAR PILOT ROCK02-02-2016DISCHARGE (KAF)4140105
58PATW1METHOW-NEAR PATEROS02-02-2016DISCHARGE (KAF)448428105
59WGCM8MF FLATHEAD-NEAR WEST GLACIER02-02-2016DISCHARGE (KAF)69577190
60CLFW1NACHES-NEAR CLIFFDEL02-02-2016DISCHARGE (KAF)329262126
61NACW1NACHES-NEAR NACHES02-02-2016DISCHARGE (KAF)552325170
62DWRI1NF CLEARWATER-DWORSHAK DAM02-02-2016INFLOW (KAF)22852162106
63FCFM8NF FLATHEAD-NEAR COLUMBIA FALLS02-02-2016DISCHARGE (KAF)71479989
64MONO3NF JOHN DAY-AT MONUMENT02-02-2016DISCHARGE (KAF)592591100
65CSDI1NF PAYETTE-CASCADE DAM02-02-2016INFLOW (KAF)32632899
66TONW1OKANOGAN-NEAR TONASKET02-02-2016DISCHARGE (KAF)79680699
67OWYO3OWYHEE-OWYHEE DAM02-02-2016INFLOW (KAF)409355115
68EMMI1PAYETTE-NEAR EMMETT02-02-2016DISCHARGE (KAF)82191290
69ALFW1PEND OREILLE-ALBENI FALLS DAM02-02-2016INFLOW (KAF)5017766965
70HOPI1PEND OREILLE-PEND OREILLE LAKE NR HOPE02-02-2016LAKE ELEVATION (FT)MMM
71PIHI1PORTNEUF-AT POCATELLO02-02-2016DISCHARGE (KAF)6810167
72PRTI1PRIEST-NEAR PRIEST RIVER02-02-2016DISCHARGE (KAF)559561100
73RCCM8ROCK CREEK-NEAR CLINTON02-02-2016DISCHARGE (KAF)8812869
74WHBI1SALMON-AT WHITEBIRD02-02-2016DISCHARGE (KAF)2715300390
75ARAI1SF BOISE-ANDERSON RANCH DAM02-02-2016INFLOW (KAF)33234995
76HHWM8SF FLATHEAD-HUNGRY HORSE DAM02-02-2016INFLOW (KAF)876107881
77PLDI1SF SNAKE-PALISADES DAM02-02-2016INFLOW (KAF)1205140786
78SIFI1SNAKE-AB EAGLE ROCK NR IDAHO FALLS02-02-2016DISCHARGE (KAF)1338154287
79AFRI1SNAKE-AMERICAN FALLS RESERVOIR02-02-2016INFLOW (KAF)1588207477
80SNAI1SNAKE-AT BLACKFOOT02-02-2016DISCHARGE (KAF)1034137475
81MILI1SNAKE-AT MILNER02-02-2016DISCHARGE (KAF)15872522
82WEII1SNAKE-AT WEISER02-02-2016DISCHARGE (KAF)3903511876
83SWAI1SNAKE-BELOW SWAN FALLS02-02-2016DISCHARGE (KAF)1857270669
84BRNI1SNAKE-BROWNLEE DAM02-02-2016INFLOW (KAF)4328549979
85IHDW1SNAKE-ICE HARBOR DAM02-02-2016INFLOW (KAF)134071596384
86JLKW4SNAKE-JACKSON LAKE AT DAM02-02-2016INFLOW (KAF)32133496
87LGSW1SNAKE-LITTLE GOOSE DAM02-02-2016INFLOW (KAF)131231585583
88LGDW1SNAKE-LOWER GRANITE DAM02-02-2016INFLOW (KAF)130961580583
89LMNW1SNAKE-LOWER MONUMENTAL DAM02-02-2016INFLOW (KAF)133941612583
90ALPW4SNAKE-NEAR ALPINE02-02-2016DISCHARGE (KAF)75786887
91ANAW1SNAKE-NEAR ANATONE02-02-2016DISCHARGE (KAF)83421053579
92BFTI1SNAKE-NEAR BLACKFOOT02-02-2016DISCHARGE (KAF)1012138273
93HEII1SNAKE-NEAR HEISE02-02-2016DISCHARGE (KAF)14541435101
94JKSW4SNAKE-NEAR JACKSON02-02-2016DISCHARGE (KAF)57164189
95SHYI1SNAKE-NEAR SHELLEY02-02-2016DISCHARGE (KAF)1252156980
96LLKW1SPOKANE-AT LONGLAKE02-02-2016INFLOW (KAF)2690312486
97SPOW1SPOKANE-AT SPOKANE02-02-2016DISCHARGE (KAF)2352MM
98SJMI1ST JOE-AT ST MARIES02-02-2016STAGE (FT)MMM
99SATI1ST MARIES-NEAR SANTA02-02-2016DISCHARGE (KAF)164146112
100STRM8ST. REGIS-NEAR ST. REGIS02-02-2016DISCHARGE (KAF)18420092
101TNAW1TEANAWAY-BELOW FORKS02-02-2016DISCHARGE (KAF)143124116
102TEAI1TETON-NEAR ST. ANTHONY02-02-2016DISCHARGE (KAF)16818890
103RILW1TIETON-RIMROCK LAKE NEAR RIMROCK02-02-2016INFLOW (KAF)138127109
104PDTO3UMATILLA-AT PENDLETON02-02-2016DISCHARGE (KAF)206197104
105GIBO3UMATILLA-NEAR GIBBON02-02-2016DISCHARGE (KAF)9384111
106UMAO3UMATILLA-NEAR UMATILLA02-02-2016DISCHARGE (KAF)182169107
107TCHW1WALLA WALLA-NEAR TOUCHET02-02-2016DISCHARGE (KAF)225213106
108WSRI1WEISER-NEAR WEISER02-02-2016DISCHARGE (KAF)488407120
109PESW1WENATCHEE-AT PESHASTIN02-02-2016DISCHARGE (KAF)932805116
110UNDW1WHITE SALMON-NEAR UNDERWOOD02-02-2016DISCHARGE (KAF)399357112
111RIDI1WILLOW CREEK-RIRIE DAM02-02-2016INFLOW (KAF)373995
112EASW1YAKIMA-AT EASTON02-02-2016DISCHARGE (KAF)106100106
113KIOW1YAKIMA-AT KIONA02-02-2016DISCHARGE (KAF)11301000113
114UMTW1YAKIMA-AT UMTANUM02-02-2016DISCHARGE (KAF)625559112
115KEDW1YAKIMA-KEECHELUS LAKE02-02-2016INFLOW (KAF)10691117
116PARW1YAKIMA-NEAR PARKER02-02-2016DISCHARGE (KAF)893640139